This demonstration page uses our WeatherBlox Daily Observations layout. Learn more.

Left ArrowRight Arrow

Hourly Observations for August 19, 2021

Temp ( °F °C ) Dew Point ( °F °C ) Humidity (%) Winds ( mph kmh ) Pressure ( in mb ) Visibility ( mi km ) Precip ( " mm )
12:54 am 00:54 Clear 74 23.3 67 19.4 79 79 S 8 13 29.99 1016 10 16 0.00 0.00
1:54 am 01:54 Clear 72 22.2 67 19.4 84 84 S 8 13 29.98 1015 10 16 0.00 0.00
2:54 am 02:54 Clear 73 22.8 67 19.4 81 81 S 7 11 29.98 1015 10 16 0.00 0.00
3:54 am 03:54 Clear 70 21.1 66 18.9 87 87 S 5 7 29.97 1015 10 16 0.00 0.00
4:54 am 04:54 Clear 70 21.1 66 18.9 87 87 S 5 7 29.97 1015 10 16 0.00 0.00
5:54 am 05:54 Clear 71 21.7 67 19.4 87 87 SSE 6 9 29.97 1015 10 16 0.00 0.00
6:54 am 06:54 Sunny 70 21.1 67 19.4 90 90 SSE 5 7 29.98 1015 10 16 0.00 0.00
7:54 am 07:54 Sunny 73 22.8 68 20 84 84 SE 6 9 29.98 1015 10 16 0.00 0.00
8:54 am 08:54 Sunny 78 25.6 70 21.1 76 76 S 8 13 29.98 1015 10 16 0.00 0.00
9:54 am 09:54 Sunny 81 27.2 71 21.7 72 72 SSE 8 13 29.98 1015 10 16 0.00 0.00
10:54 am 10:54 Mostly Sunny 84 28.9 71 21.7 65 65 SSE 12 19 29.98 1015 10 16 0.00 0.00
11:41 am 11:41 Mostly Cloudy 85 29.4 71 21.7 63 63 SE 8 13 29.94 1014 10 16 0.00 0.00
11:54 am 11:54 Mostly Cloudy 84 28.9 71 21.7 65 65 SE 13 20 29.97 1015 10 16 0.00 0.00
12:54 pm 12:54 Mostly Cloudy 86 30 69 20.6 57 57 SSE 15 24 29.97 1015 10 16 0.00 0.00
1:54 pm 13:54 Partly Cloudy 87 30.6 69 20.6 55 55 SE 18 30 29.95 1014 10 16 0.00 0.00
2:54 pm 14:54 Mostly Cloudy 88 31.1 69 20.6 54 54 SSE 17 28 29.92 1013 10 16 0.00 0.00
3:54 pm 15:54 Mostly Cloudy 88 31.1 69 20.6 54 54 SSE 17 28 29.91 1013 10 16 0.00 0.00
4:54 pm 16:54 Mostly Cloudy with Light Rain 87 30.6 70 21.1 57 57 SE 17 28 29.89 1012 10 16 0.00 0.00
5:54 pm 17:54 Partly Cloudy 87 30.6 72 22.2 61 61 SE 12 19 29.87 1011 10 16 0.00 0.00
6:54 pm 18:54 Cloudy with Light Rain 83 28.3 72 22.2 70 70 SSE 25 41 29.86 1011 7 11 0.00 0.00
6:59 pm 18:59 Cloudy with Heavy Rain 78 25.6 73 22.8 85 85 SSE 18 30 29.83 1010 2 3 0.00 0.00
7:09 pm 19:09 Cloudy with Light Rain 80 26.7 75 23.9 85 85 SSE 10 17 29.82 1010 4 6 0.08 2.03
7:54 pm 19:54 Mostly Sunny 82 27.8 73 22.8 74 74 SE 12 19 29.84 1010 10 16 0.08 2.03
8:54 pm 20:54 Mostly Cloudy 81 27.2 72 22.2 74 74 SE 10 17 29.87 1011 10 16 0.00 0.00
9:54 pm 21:54 Partly Cloudy 81 27.2 71 21.7 72 72 SE 12 19 29.88 1012 10 16 0.00 0.00
10:54 pm 22:54 Mostly Clear 80 26.7 72 22.2 76 76 SE 15 24 29.86 1011 10 16 0.00 0.00
11:54 pm 23:54 Clear 79 26.1 72 22.2 79 79 SE 16 26 29.85 1011 10 16 0.00 0.00

Powered by AerisWeather